Nome, AK

3:55 PM AKDT on September 21, 2017 (GMT -0800)
Nome

Weather History for PAOM - October, 2013

Change the Weather History Date:

Wednesday, October 23, 2013

  Actual Average Record
Temperature  
Mean Temperature 33 °F 26 °F  
Max Temperature 37 °F 31 °F 46 °F (1926)
Min Temperature 29 °F 20 °F 2 °F (1967)
Degree Days  
Heating Degree Days 32 40  
Month to date heating degree days 652 794  
Since 1 July heating degree days 2172 2320  
Cooling Degree Days 0 0  
Month to date cooling degree days 0 0  
Year to date cooling degree days 7 3  
Moisture  
Dew Point 28 °F    
Average Humidity 0    
Maximum Humidity 0    
Minimum Humidity 0    
Precipitation  
Precipitation 0.00 in 0.04 in 0.75 in (1914)
Month to date precipitation 3.00 1.26  
Year to date precipitation 18.09 14.16  
Snow  
Snow 0.00 in 0.20 in 3.60 in (2014)
Month to date snowfall 0.2 2.7  
Since 1 July snowfall 1.3 3.3  
Since 1 September snowfall 1.3 3.3  
Snow Depth 0.00 in    
Sea Level Pressure  
Sea Level Pressure 30.06 in    
Wind  
Wind Speed 9 mph (NE)    
Max Wind Speed 21 mph    
Max Gust Speed 25 mph    
Visibility 10 miles    
Events      
T = Trace of Precipitation, MM = Missing Value Source: NWS Daily Summary

Daily Weather History Graph

Daily Weather History Graph

Search for Another Location

Airport or City:

Trip Planner

Search our weather history database for the weather conditions in past years. The results will help you decide how hot, cold, wet, or windy it might be!

Date:

Astronomy

Oct. 23, 2013 Rise Set
Actual Time 10:19 AM AKDT 7:10 PM AKDT
Civil Twilight 9:28 AM AKDT 8:02 PM AKDT
Nautical Twilight 8:31 AM AKDT 8:58 PM AKDT
Astronomical Twilight 7:35 AM AKDT 9:54 PM AKDT
Moon 9:49 PM AKDT (10/23) 3:52 PM AKDT (10/23)
Length of Visible Light 10h 33m
Length of Day
8h 51m
Waning Gibbous, 78% of the Moon is Illuminated
Oct 23
Waning Gibbous
Oct 26
Last Quarter
Nov 3
New
Nov 9
First Quarter
Nov 17
Full

Hourly Weather History & Observations

Time (AKDT) Temp. Windchill Dew Point Humidity Pressure Visibility Wind Dir Wind Speed Gust Speed Precip Events Conditions
12:53 AM 36.0 °F 32.1 °F 33.1 °F 89% 30.11 in 10.0 mi NE 4.6 mph - N/A   Mostly Cloudy
1:53 AM 34.0 °F 28.0 °F 32.0 °F 92% 30.12 in 10.0 mi ENE 6.9 mph - N/A   Scattered Clouds
2:53 AM 35.1 °F 29.3 °F 32.0 °F 89% 30.12 in 10.0 mi NE 6.9 mph - N/A   Scattered Clouds
3:53 AM 34.0 °F 27.2 °F 30.9 °F 89% 30.11 in 10.0 mi NE 8.1 mph - N/A   Scattered Clouds
4:53 AM 33.1 °F 26.1 °F 30.9 °F 92% 30.11 in 10.0 mi NE 8.1 mph - N/A   Partly Cloudy
5:53 AM 28.9 °F 23.9 °F 27.0 °F 92% 30.10 in 10.0 mi NNE 4.6 mph - N/A   Clear
6:53 AM 32.0 °F 25.6 °F 28.9 °F 88% 30.09 in 10.0 mi NE 6.9 mph - N/A   Partly Cloudy
7:53 AM 32.0 °F 24.8 °F 28.9 °F 88% 30.09 in 10.0 mi NE 8.1 mph - N/A   Partly Cloudy
8:53 AM 32.0 °F - 28.0 °F 85% 30.09 in 10.0 mi Calm Calm - N/A   Clear
9:53 AM 32.0 °F 24.8 °F 28.0 °F 85% 30.08 in 10.0 mi NE 8.1 mph - N/A   Partly Cloudy
10:53 AM 32.0 °F 27.5 °F 27.0 °F 82% 30.08 in 10.0 mi NNE 4.6 mph - N/A   Partly Cloudy
11:53 AM 34.0 °F 26.0 °F 27.0 °F 75% 30.07 in 10.0 mi NNE 10.4 mph - N/A   Partly Cloudy
12:53 PM 35.1 °F 27.9 °F 27.0 °F 72% 30.07 in 10.0 mi NE 9.2 mph - N/A   Partly Cloudy
1:53 PM 36.0 °F 29.6 °F 27.0 °F 70% 30.06 in 10.0 mi NE 8.1 mph - N/A   Scattered Clouds
2:53 PM 37.0 °F 33.3 °F 27.0 °F 67% 30.05 in 10.0 mi NE 4.6 mph - N/A   Scattered Clouds
3:07 PM 37.4 °F 32.1 °F 26.6 °F 65% 30.05 in 10.0 mi NE 6.9 mph - N/A   Scattered Clouds
3:53 PM 37.0 °F 28.5 °F 28.0 °F 70% 30.04 in 10.0 mi NE 13.8 mph 20.7 mph N/A   Scattered Clouds
4:53 PM 36.0 °F 27.1 °F 28.0 °F 73% 30.02 in 10.0 mi NE 13.8 mph - N/A   Partly Cloudy
5:53 PM 34.0 °F 23.8 °F 27.0 °F 75% 30.02 in 10.0 mi NE 16.1 mph 23.0 mph N/A   Clear
6:53 PM 33.1 °F 24.9 °F 26.1 °F 75% 30.01 in 10.0 mi ENE 10.4 mph 23.0 mph N/A   Clear
7:53 PM 32.0 °F 24.2 °F 26.1 °F 79% 30.00 in 10.0 mi ENE 9.2 mph - N/A   Clear
8:53 PM 33.1 °F 23.4 °F 26.1 °F 75% 29.99 in 10.0 mi NE 13.8 mph - N/A   Scattered Clouds
9:53 PM 33.1 °F 30.0 °F 26.1 °F 75% 30.00 in 10.0 mi Variable 3.5 mph - N/A   Clear
10:53 PM 33.1 °F 24.4 °F 25.0 °F 72% 29.98 in 10.0 mi NNE 11.5 mph - N/A   Clear
11:53 PM 33.1 °F 24.9 °F 25.0 °F 72% 29.98 in 10.0 mi NNE 10.4 mph - N/A   Clear